Regional Weather Roundup
Issued by NWS Green Bay, WI

Home | Current Version | Previous Version | Graphics & Text | Print | Product List | Glossary Off
Versions: 1 2 3 4 5 6 7 8 9 10 11 12 13 14 15 16 17 18 19 20 21 22 23 24 25 26 27 28 29 30 31 32 33 34 35 36 37 38 39 40 41 42 43 44 45 46 47 48 49 50

000
ASUS43 KGRB 011511
RWRGRB

NORTH-CENTRAL AND NORTHEAST WISCONSIN REGIONAL WEATHER ROUNDUP
NATIONAL WEATHER SERVICE GREEN BAY WI
1000 AM CDT TUE SEP 01 2015

WIZ005-009-010>012-018-019-011600-
NORTH CENTRAL WISCONSIN

CITY           SKY/WX    TMP DP  RH WIND       PRES   REMARKS
IRONWOOD       PTSUNNY   77  70  78 SW7       29.90S
MANITOWISH WTR PTSUNNY   74  70  88 SW9       29.97S
ARBOR VITAE    MOSUNNY   73  69  88 SW6       29.99S
EAGLE RIVER    MOSUNNY   74  68  82 S5        29.99S
LAND O LAKES   PTSUNNY   76  68  77 SW7       30.00R
RHINELANDER    PTSUNNY   73  68  84 S6        30.00F HAZE
PHILLIPS       CLOUDY    72  70  94 S8        29.97F
ANTIGO         PTSUNNY   73  70  89 CALM      30.01S FOG
TOMAHAWK       CLOUDY    69  68  96 CALM      30.00S FOG
MERRILL        CLOUDY    74  71  92 W3        30.00R FOG
$$

WIZ013-073-011600-
NORTHEAST WISCONSIN

CITY           SKY/WX    TMP DP  RH WIND       PRES   REMARKS
IRON MOUNTAIN  MOSUNNY   75  69  81 SE3       29.97F
MARINETTE      PTSUNNY   73  68  83 SW3       29.98S
OCONTO         CLOUDY    74  74 100 SW3       29.98F
$$

WIZ017-030-035>037-045-011600-
CENTRAL WISCONSIN

CITY           SKY/WX    TMP DP  RH WIND       PRES   REMARKS
MEDFORD        CLOUDY    72  71  97 S7        29.99F FOG
WAUSAU         MOSUNNY   74  69  85 S3        29.98S HAZE
MOSINEE        NOT AVBL
MARSHFIELD     MOSUNNY   77  70  79 SW6       29.99S
WISC RAPIDS    MOSUNNY   78  70  76 SW6       30.00S
STEVENS POINT  SUNNY     76  70  81 W7        30.00S
WAUPACA        SUNNY     80  73  80 CALM      30.00S
SHAWANO        SUNNY     78  71  79 CALM      29.99S
CLINTONVILLE   PTSUNNY   75  70  83 SW6       29.99S
WAUTOMA        SUNNY     79  73  81 VRB3      30.00F
$$

WIZ038-039-048-051-011600-
FOX VALLEY

CITY           SKY/WX    TMP DP  RH WIND       PRES   REMARKS
NWS GREEN BAY  SUNNY     78  72  81 SW7       29.99S HAZE
APPLETON       MOSUNNY   77  72  83 SW8       29.99S
OSHKOSH        SUNNY     78  71  79 SW7       30.00R
FOND DU LAC    SUNNY     78  72  81 SW7       30.01S
$$

WIZ022-050-052-011600-
EAST CENTRAL WISCONSIN

CITY           SKY/WX    TMP DP  RH WIND       PRES   REMARKS
EPHRAIM        FAIR      77  70  78 S5        29.99S
STURGEON BAY   SUNNY     77  70  78 S7        30.01F
MANITOWOC      SUNNY     69  64  84 MISG      30.01F
SHEBOYGAN      SUNNY     78  73  84 S6        30.01F
$$

LMZ563-521-522-541>543-011600-
LAKESHORE

STATION/POSITION TIME  TEMP    WIND        PRES    VSBY  WAVE
                       AIR SEA DIR/SP/G                  HT/PER
                 (UTC) (F)     (DEG/KT/KT) (MB)    (MI)  (FT/S)
SHEBOYGAN LKSHOR 1500   66     170/ 17/ 18 1016.2F
KEWAUNEE LKSHORE 1400   51     150/  5/  7 1015.0F
ALGOMA MARINA    1444             CALM       N/A
NORTHPORT PIER   1400   70     180/  5/  7 1015.6F
N MID LAKE BUOY  1450   66 65  190/ 14/ 14 1015.2F         2/ 4
S GREEN BAY BUOY 1400   68 64  200/  6/  6 1016.7F
SISTER BAY LKSHO 1404   76     140/  6/  8   N/A
CHAMBERS ISLAND  1400   75     180/  2/  9 1015.2F
MENOMINEE LKSHOR 1400   67     170/  5/  6 1014.3F
$$


USA.gov is the U.S. government's official web portal to all federal, state and local government web resources and services.